Time,TemperatureF,DewpointF,PressureIn,WindDirection,WindDirectionDegrees,WindSpeedMPH,WindSpeedGustMPH,Humidity,HourlyPrecipIn,Conditions,Clouds,dailyrainin,SoftwareType,DateUTC
2013-01-01 00:02:00,35.0,35.0,30.41,NW,317,0.0,-999.0,99,-99.99,,,-99.99,,2013-01-01 08:02:00,
2013-01-01 00:11:00,35.0,35.0,30.41,NW,317,0.0,-999.0,99,-99.99,,,-99.99,,2013-01-01 08:11:00,
2013-01-01 00:22:00,35.0,35.0,30.41,NW,317,0.0,-999.0,99,-99.99,,,-99.99,,2013-01-01 08:22:00,
2013-01-01 00:32:00,35.0,35.0,30.41,NW,317,0.0,-999.0,99,-99.99,,,-99.99,,2013-01-01 08:32:00,
2013-01-01 00:42:00,35.0,35.0,30.41,NW,317,0.0,-999.0,99,-99.99,,,-99.99,,2013-01-01 08:42:00,
2013-01-01 00:53:00,35.0,35.0,30.42,NW,317,0.0,-999.0,99,-99.99,,,-99.99,,2013-01-01 08:53:00,
2013-01-01 01:02:00,35.0,35.0,30.42,NW,317,0.0,-999.0,99,-99.99,,,-99.99,,2013-01-01 09:02:00,
2013-01-01 01:11:00,35.0,35.0,30.42,NW,317,0.0,-999.0,99,-99.99,,,-99.99,,2013-01-01 09:11:00,
2013-01-01 01:22:00,34.0,34.0,30.42,NW,317,0.0,-999.0,99,-99.99,,,-99.99,,2013-01-01 09:22:00,
2013-01-01 01:32:00,34.0,34.0,30.42,NW,317,0.0,-999.0,99,-99.99,,,-99.99,,2013-01-01 09:32:00,
2013-01-01 01:42:00,34.0,34.0,30.42,NW,317,0.0,-999.0,99,-99.99,,,-99.99,,2013-01-01 09:42:00,
2013-01-01 01:52:00,34.0,34.0,30.42,NW,317,0.0,-999.0,99,-99.99,,,-99.99,,2013-01-01 09:52:00,
2013-01-01 02:01:00,35.0,35.0,30.42,NW,317,0.0,-999.0,99,-99.99,,,-99.99,,2013-01-01 10:01:00,
2013-01-01 02:11:00,35.0,35.0,30.42,NW,317,0.0,-999.0,99,-99.99,,,-99.99,,2013-01-01 10:11:00,
2013-01-01 02:22:00,35.0,35.0,30.43,NW,317,0.0,-999.0,99,-99.99,,,-99.99,,2013-01-01 10:22:00,
2013-01-01 02:32:00,35.0,35.0,30.44,NW,317,0.0,-999.0,99,-99.99,,,-99.99,,2013-01-01 10:32:00,
2013-01-01 02:42:00,35.0,35.0,30.44,NW,317,0.0,-999.0,99,-99.99,,,-99.99,,2013-01-01 10:42:00,
2013-01-01 02:52:00,35.0,35.0,30.44,NW,319,0.0,-999.0,99,-99.99,,,-99.99,,2013-01-01 10:52:00,
2013-01-01 03:01:00,35.0,35.0,30.44,North,357,1.0,-999.0,99,-99.99,,,-99.99,,2013-01-01 11:01:00,
2013-01-01 03:12:00,35.0,35.0,30.44,North,357,1.0,-999.0,99,-99.99,,,-99.99,,2013-01-01 11:12:00,
2013-01-01 03:22:00,36.0,36.0,30.44,North,357,0.0,-999.0,99,-99.99,,,-99.99,,2013-01-01 11:22:00,
2013-01-01 03:32:00,36.0,36.0,30.43,North,357,0.0,-999.0,99,-99.99,,,-99.99,,2013-01-01 11:32:00,
2013-01-01 03:42:00,36.0,36.0,30.43,North,357,0.0,-999.0,99,-99.99,,,-99.99,,2013-01-01 11:42:00,
2013-01-01 03:53:00,36.0,35.0,30.42,North,357,0.0,-999.0,98,-99.99,,,-99.99,,2013-01-01 11:53:00,
2013-01-01 04:02:00,35.0,34.0,30.42,North,357,0.0,-999.0,98,-99.99,,,-99.99,,2013-01-01 12:02:00,
2013-01-01 04:12:00,35.0,34.0,30.42,North,357,0.0,-999.0,98,-99.99,,,-99.99,,2013-01-01 12:12:00,
2013-01-01 04:22:00,35.0,34.0,30.42,North,357,0.0,-999.0,98,-99.99,,,-99.99,,2013-01-01 12:22:00,
2013-01-01 04:32:00,35.0,34.0,30.42,North,357,0.0,-999.0,98,-99.99,,,-99.99,,2013-01-01 12:32:00,
2013-01-01 04:42:00,35.0,34.0,30.42,North,357,0.0,-999.0,98,-99.99,,,-99.99,,2013-01-01 12:42:00,
2013-01-01 04:52:00,34.0,34.0,30.41,North,357,0.0,-999.0,98,-99.99,,,-99.99,,2013-01-01 12:52:00,
2013-01-01 05:02:00,33.0,32.0,30.41,North,357,0.0,-999.0,98,-99.99,,,-99.99,,2013-01-01 13:02:00,
2013-01-01 05:12:00,33.0,32.0,30.41,North,357,0.0,-999.0,98,-99.99,,,-99.99,,2013-01-01 13:12:00,
2013-01-01 05:22:00,33.0,32.0,30.41,North,357,0.0,-999.0,98,-99.99,,,-99.99,,2013-01-01 13:22:00,
2013-01-01 05:32:00,33.0,32.0,30.41,North,357,0.0,-999.0,98,-99.99,,,-99.99,,2013-01-01 13:32:00,
2013-01-01 05:42:00,33.0,32.0,30.41,North,357,0.0,-999.0,98,-99.99,,,-99.99,,2013-01-01 13:42:00,
2013-01-01 05:52:00,33.0,32.0,30.40,North,357,0.0,-999.0,98,-99.99,,,-99.99,,2013-01-01 13:52:00,
2013-01-01 06:02:00,33.0,32.0,30.40,North,357,0.0,-999.0,98,-99.99,,,-99.99,,2013-01-01 14:02:00,
2013-01-01 06:12:00,33.0,32.0,30.40,North,357,0.0,-999.0,98,-99.99,,,-99.99,,2013-01-01 14:12:00,
2013-01-01 06:22:00,32.0,32.0,30.40,North,357,0.0,-999.0,98,-99.99,,,-99.99,,2013-01-01 14:22:00,
2013-01-01 06:32:00,32.0,32.0,30.40,North,357,0.0,-999.0,98,-99.99,,,-99.99,,2013-01-01 14:32:00,
2013-01-01 06:42:00,32.0,32.0,30.40,North,357,0.0,-999.0,98,-99.99,,,-99.99,,2013-01-01 14:42:00,
2013-01-01 06:52:00,33.0,33.0,30.41,North,357,1.0,-999.0,99,-99.99,,,-99.99,,2013-01-01 14:52:00,
2013-01-01 07:02:00,33.0,33.0,30.40,North,356,0.0,-999.0,99,-99.99,,,-99.99,,2013-01-01 15:02:00,
2013-01-01 07:12:00,33.0,33.0,30.40,North,356,0.0,-999.0,99,-99.99,,,-99.99,,2013-01-01 15:12:00,
2013-01-01 07:22:00,33.0,33.0,30.40,North,357,1.0,-999.0,99,-99.99,,,-99.99,,2013-01-01 15:22:00,
2013-01-01 07:33:00,33.0,33.0,30.40,North,5,1.0,-999.0,99,-99.99,,,-99.99,,2013-01-01 15:33:00,
2013-01-01 07:42:00,33.0,33.0,30.40,North,5,1.0,-999.0,99,-99.99,,,-99.99,,2013-01-01 15:42:00,
2013-01-01 07:52:00,33.0,32.0,30.40,North,4,1.0,-999.0,98,-99.99,,,-99.99,,2013-01-01 15:52:00,
2013-01-01 08:02:00,32.0,32.0,30.40,North,5,2.0,-999.0,98,-99.99,,,-99.99,,2013-01-01 16:02:00,
2013-01-01 08:12:00,32.0,32.0,30.40,North,5,2.0,-999.0,98,-99.99,,,-99.99,,2013-01-01 16:12:00,
2013-01-01 08:22:00,32.0,32.0,30.41,North,10,1.0,-999.0,99,-99.99,,,-99.99,,2013-01-01 16:22:00,
2013-01-01 08:32:00,32.0,32.0,30.43,North,354,1.0,-999.0,98,-99.99,,,-99.99,,2013-01-01 16:32:00,
2013-01-01 08:42:00,32.0,32.0,30.43,North,354,1.0,-999.0,98,-99.99,,,-99.99,,2013-01-01 16:42:00,
2013-01-01 08:52:00,32.0,32.0,30.44,North,358,3.0,-999.0,98,-99.99,,,-99.99,,2013-01-01 16:52:00,
2013-01-01 09:02:00,32.0,32.0,30.44,North,351,2.0,-999.0,99,-99.99,,,-99.99,,2013-01-01 17:02:00,
2013-01-01 09:12:00,32.0,32.0,30.44,North,351,2.0,-999.0,99,-99.99,,,-99.99,,2013-01-01 17:12:00,
2013-01-01 09:22:00,32.0,32.0,30.45,NNW,340,3.0,-999.0,99,-99.99,,,-99.99,,2013-01-01 17:22:00,
2013-01-01 09:32:00,32.0,32.0,30.44,NNW,347,2.0,-999.0,99,-99.99,,,-99.99,,2013-01-01 17:32:00,
2013-01-01 09:42:00,32.0,32.0,30.44,NNW,347,2.0,-999.0,99,-99.99,,,-99.99,,2013-01-01 17:42:00,
2013-01-01 09:52:00,32.0,32.0,30.45,North,357,1.0,-999.0,99,-99.99,,,-99.99,,2013-01-01 17:52:00,
2013-01-01 10:02:00,32.0,32.0,30.45,NNE,21,2.0,-999.0,99,-99.99,,,-99.99,,2013-01-01 18:02:00,
2013-01-01 10:12:00,32.0,32.0,30.45,NNE,21,2.0,-999.0,99,-99.99,,,-99.99,,2013-01-01 18:12:00,
2013-01-01 10:22:00,33.0,33.0,30.45,North,3,1.0,-999.0,99,-99.99,,,-99.99,,2013-01-01 18:22:00,
2013-01-01 10:33:00,33.0,33.0,30.45,North,3,1.0,-999.0,99,-99.99,,,-99.99,,2013-01-01 18:33:00,
2013-01-01 10:42:00,33.0,33.0,30.45,North,3,1.0,-999.0,99,-99.99,,,-99.99,,2013-01-01 18:42:00,
2013-01-01 10:52:00,33.0,33.0,30.45,North,3,1.0,-999.0,99,-99.99,,,-99.99,,2013-01-01 18:52:00,
2013-01-01 11:02:00,34.0,34.0,30.44,NNW,346,1.0,-999.0,98,-99.99,,,-99.99,,2013-01-01 19:02:00,
2013-01-01 11:12:00,34.0,34.0,30.44,NNW,346,1.0,-999.0,98,-99.99,,,-99.99,,2013-01-01 19:12:00,
2013-01-01 11:22:00,35.0,34.0,30.44,NNE,21,1.0,-999.0,98,-99.99,,,-99.99,,2013-01-01 19:22:00,
2013-01-01 11:32:00,36.0,35.0,30.43,North,360,3.0,-999.0,96,-99.99,,,-99.99,,2013-01-01 19:32:00,
2013-01-01 11:42:00,36.0,35.0,30.43,North,360,3.0,-999.0,96,-99.99,,,-99.99,,2013-01-01 19:42:00,
2013-01-01 11:52:00,37.0,35.0,30.42,NNE,13,1.0,-999.0,93,-99.99,,,-99.99,,2013-01-01 19:52:00,
2013-01-01 12:02:00,38.0,36.0,30.42,NNE,20,1.0,-999.0,92,-99.99,,,-99.99,,2013-01-01 20:02:00,
2013-01-01 12:12:00,38.0,36.0,30.42,NNE,20,1.0,-999.0,92,-99.99,,,-99.99,,2013-01-01 20:12:00,
2013-01-01 12:22:00,38.0,35.0,30.41,North,350,2.0,-999.0,90,-99.99,,,-99.99,,2013-01-01 20:22:00,
2013-01-01 12:32:00,38.0,35.0,30.41,North,3,3.0,-999.0,89,-99.99,,,-99.99,,2013-01-01 20:32:00,
2013-01-01 12:42:00,38.0,35.0,30.41,North,3,3.0,-999.0,89,-99.99,,,-99.99,,2013-01-01 20:42:00,
2013-01-01 12:52:00,39.0,36.0,30.40,NNW,342,3.0,-999.0,88,-99.99,,,-99.99,,2013-01-01 20:52:00,
2013-01-01 13:03:00,39.0,35.0,30.40,North,7,3.0,-999.0,87,-99.99,,,-99.99,,2013-01-01 21:03:00,
2013-01-01 13:12:00,39.0,35.0,30.40,North,7,3.0,-999.0,87,-99.99,,,-99.99,,2013-01-01 21:12:00,
2013-01-01 13:22:00,39.0,35.0,30.39,North,11,1.0,-999.0,87,-99.99,,,-99.99,,2013-01-01 21:22:00,
2013-01-01 13:32:00,40.0,36.0,30.39,North,11,2.0,-999.0,86,-99.99,,,-99.99,,2013-01-01 21:32:00,
2013-01-01 13:42:00,40.0,36.0,30.39,North,11,2.0,-999.0,86,-99.99,,,-99.99,,2013-01-01 21:42:00,
2013-01-01 13:52:00,40.0,36.0,30.38,North,7,1.0,-999.0,87,-99.99,,,-99.99,,2013-01-01 21:52:00,
2013-01-01 14:02:00,40.0,36.0,30.38,North,7,3.0,-999.0,85,-99.99,,,-99.99,,2013-01-01 22:02:00,
2013-01-01 14:12:00,40.0,36.0,30.38,North,7,3.0,-999.0,85,-99.99,,,-99.99,,2013-01-01 22:12:00,
2013-01-01 14:22:00,40.0,36.0,30.39,NNE,23,2.0,-999.0,84,-99.99,,,-99.99,,2013-01-01 22:22:00,
2013-01-01 14:32:00,40.0,36.0,30.39,North,355,1.0,-999.0,85,-99.99,,,-99.99,,2013-01-01 22:32:00,
2013-01-01 14:42:00,40.0,36.0,30.39,North,355,1.0,-999.0,85,-99.99,,,-99.99,,2013-01-01 22:42:00,
2013-01-01 14:52:00,40.0,36.0,30.38,North,353,1.0,-999.0,86,-99.99,,,-99.99,,2013-01-01 22:52:00,
2013-01-01 15:02:00,40.0,36.0,30.38,ENE,69,1.0,-999.0,85,-99.99,,,-99.99,,2013-01-01 23:02:00,
2013-01-01 15:12:00,40.0,36.0,30.38,ENE,69,1.0,-999.0,85,-99.99,,,-99.99,,2013-01-01 23:12:00,
2013-01-01 15:22:00,40.0,36.0,30.38,North,352,1.0,-999.0,86,-99.99,,,-99.99,,2013-01-01 23:22:00,
2013-01-01 15:32:00,40.0,36.0,30.38,NNW,333,0.0,-999.0,85,-99.99,,,-99.99,,2013-01-01 23:32:00,
2013-01-01 15:42:00,40.0,36.0,30.38,NNW,333,0.0,-999.0,85,-99.99,,,-99.99,,2013-01-01 23:42:00,
2013-01-01 15:52:00,39.0,35.0,30.38,NNW,333,0.0,-999.0,87,-99.99,,,-99.99,,2013-01-01 23:52:00,
2013-01-01 16:02:00,39.0,35.0,30.38,North,5,1.0,-999.0,86,-99.99,,,-99.99,,2013-01-02 00:02:00,
2013-01-01 16:12:00,39.0,35.0,30.38,North,5,1.0,-999.0,86,-99.99,,,-99.99,,2013-01-02 00:12:00,
2013-01-01 16:22:00,38.0,35.0,30.38,North,8,0.0,-999.0,88,-99.99,,,-99.99,,2013-01-02 00:22:00,
2013-01-01 16:32:00,38.0,35.0,30.37,North,8,0.0,-999.0,89,-99.99,,,-99.99,,2013-01-02 00:32:00,
2013-01-01 16:42:00,38.0,35.0,30.37,North,8,0.0,-999.0,89,-99.99,,,-99.99,,2013-01-02 00:42:00,
2013-01-01 16:52:00,37.0,35.0,30.37,North,7,0.0,-999.0,91,-99.99,,,-99.99,,2013-01-02 00:52:00,
2013-01-01 17:02:00,37.0,35.0,30.37,NNE,14,1.0,-999.0,91,-99.99,,,-99.99,,2013-01-02 01:02:00,
2013-01-01 17:12:00,37.0,35.0,30.37,NNE,14,1.0,-999.0,91,-99.99,,,-99.99,,2013-01-02 01:12:00,
2013-01-01 17:22:00,36.0,34.0,30.37,North,8,1.0,-999.0,92,-99.99,,,-99.99,,2013-01-02 01:22:00,
2013-01-01 17:32:00,36.0,34.0,30.37,North,358,2.0,-999.0,93,-99.99,,,-99.99,,2013-01-02 01:32:00,
2013-01-01 17:42:00,36.0,34.0,30.37,North,358,2.0,-999.0,93,-99.99,,,-99.99,,2013-01-02 01:42:00,
2013-01-01 17:52:00,36.0,34.0,30.37,North,360,3.0,-999.0,93,-99.99,,,-99.99,,2013-01-02 01:52:00,
2013-01-01 18:02:00,36.0,34.0,30.37,North,360,3.0,-999.0,93,-99.99,,,-99.99,,2013-01-02 02:02:00,
2013-01-01 18:12:00,36.0,34.0,30.37,North,360,3.0,-999.0,93,-99.99,,,-99.99,,2013-01-02 02:12:00,
2013-01-01 18:22:00,35.0,33.0,30.36,NNW,338,1.0,-999.0,94,-99.99,,,-99.99,,2013-01-02 02:22:00,
2013-01-01 18:32:00,35.0,34.0,30.36,NW,317,1.0,-999.0,95,-99.99,,,-99.99,,2013-01-02 02:32:00,
2013-01-01 18:42:00,35.0,34.0,30.36,NW,317,1.0,-999.0,95,-99.99,,,-99.99,,2013-01-02 02:42:00,
2013-01-01 18:52:00,35.0,34.0,30.35,NNW,335,1.0,-999.0,95,-99.99,,,-99.99,,2013-01-02 02:52:00,
2013-01-01 19:02:00,34.0,33.0,30.35,NW,306,0.0,-999.0,95,-99.99,,,-99.99,,2013-01-02 03:02:00,
2013-01-01 19:11:00,34.0,33.0,30.35,NW,306,0.0,-999.0,95,-99.99,,,-99.99,,2013-01-02 03:11:00,
2013-01-01 19:22:00,34.0,33.0,30.34,NW,312,1.0,-999.0,96,-99.99,,,-99.99,,2013-01-02 03:22:00,
2013-01-01 19:32:00,34.0,33.0,30.33,NNW,338,0.0,-999.0,96,-99.99,,,-99.99,,2013-01-02 03:32:00,
2013-01-01 19:42:00,34.0,33.0,30.33,NNW,338,0.0,-999.0,96,-99.99,,,-99.99,,2013-01-02 03:42:00,
2013-01-01 19:52:00,34.0,33.0,30.33,NNW,338,0.0,-999.0,96,-99.99,,,-99.99,,2013-01-02 03:52:00,
2013-01-01 20:02:00,33.0,32.0,30.33,NNW,338,0.0,-999.0,96,-99.99,,,-99.99,,2013-01-02 04:02:00,
2013-01-01 20:11:00,33.0,32.0,30.33,NNW,338,0.0,-999.0,96,-99.99,,,-99.99,,2013-01-02 04:11:00,
2013-01-01 20:22:00,33.0,32.0,30.33,NNW,340,0.0,-999.0,96,-99.99,,,-99.99,,2013-01-02 04:22:00,
2013-01-01 20:32:00,33.0,32.0,30.32,NNW,344,0.0,-999.0,97,-99.99,,,-99.99,,2013-01-02 04:32:00,
2013-01-01 20:42:00,33.0,32.0,30.32,NNW,344,0.0,-999.0,97,-99.99,,,-99.99,,2013-01-02 04:42:00,
2013-01-01 20:52:00,33.0,32.0,30.32,NNW,344,1.0,-999.0,97,-99.99,,,-99.99,,2013-01-02 04:52:00,
2013-01-01 21:02:00,33.0,32.0,30.32,NNW,343,0.0,-999.0,96,-99.99,,,-99.99,,2013-01-02 05:02:00,
2013-01-01 21:12:00,33.0,32.0,30.32,NNW,343,0.0,-999.0,96,-99.99,,,-99.99,,2013-01-02 05:12:00,
2013-01-01 21:22:00,33.0,32.0,30.33,NNW,343,0.0,-999.0,96,-99.99,,,-99.99,,2013-01-02 05:22:00,
2013-01-01 21:32:00,33.0,32.0,30.33,NNW,331,0.0,-999.0,97,-99.99,,,-99.99,,2013-01-02 05:32:00,
2013-01-01 21:42:00,33.0,32.0,30.33,NNW,331,0.0,-999.0,97,-99.99,,,-99.99,,2013-01-02 05:42:00,
2013-01-01 21:52:00,33.0,32.0,30.33,NNW,331,0.0,-999.0,97,-99.99,,,-99.99,,2013-01-02 05:52:00,
2013-01-01 22:02:00,33.0,32.0,30.33,NNW,332,0.0,-999.0,97,-99.99,,,-99.99,,2013-01-02 06:02:00,
2013-01-01 22:11:00,33.0,32.0,30.33,NNW,332,0.0,-999.0,97,-99.99,,,-99.99,,2013-01-02 06:11:00,
2013-01-01 22:22:00,33.0,32.0,30.32,NNW,332,0.0,-999.0,97,-99.99,,,-99.99,,2013-01-02 06:22:00,
2013-01-01 22:32:00,32.0,31.0,30.32,NNW,332,0.0,-999.0,97,-99.99,,,-99.99,,2013-01-02 06:32:00,
2013-01-01 22:42:00,32.0,31.0,30.32,NNW,332,0.0,-999.0,97,-99.99,,,-99.99,,2013-01-02 06:42:00,
2013-01-01 22:52:00,32.0,31.0,30.32,NNW,332,0.0,-999.0,97,-99.99,,,-99.99,,2013-01-02 06:52:00,
2013-01-01 23:02:00,32.0,32.0,30.32,NNW,331,0.0,-999.0,98,-99.99,,,-99.99,,2013-01-02 07:02:00,
2013-01-01 23:12:00,32.0,32.0,30.32,NNW,331,0.0,-999.0,98,-99.99,,,-99.99,,2013-01-02 07:12:00,
2013-01-01 23:22:00,32.0,32.0,30.32,NNW,331,0.0,-999.0,98,-99.99,,,-99.99,,2013-01-02 07:22:00,
2013-01-01 23:32:00,32.0,32.0,30.32,NNW,331,0.0,-999.0,98,-99.99,,,-99.99,,2013-01-02 07:32:00,
2013-01-01 23:42:00,32.0,32.0,30.32,NNW,331,0.0,-999.0,98,-99.99,,,-99.99,,2013-01-02 07:42:00,
2013-01-01 23:52:00,32.0,32.0,30.32,NNW,331,0.0,-999.0,98,-99.99,,,-99.99,,2013-01-02 07:52:00,